Location: Heathcote
(40.9845°N, 73.7746°W)
Time: 12:31:15
(UTC+00:00)

Cosmos 2369 - Pass Details

Date: 29 October 2020
Orbit: 841 x 854 km, 71.0° (Epoch: 01 December)

Event Time Altitude Azimuth Distance (km) Brightness Sun altitude
Rises 23:30:51 0° 205° (SSW) 3,407 7.2 -18.8°
Reaches altitude 10° 23:33:17 10° 206° (SSW) 2,474 6.5 -19.3°
Maximum altitude 23:38:59 80° 294° (WNW) 870 3.8 -20.3°
Drops below altitude 10° 23:44:42 10° 21° (NNE) 2,483 5.9 -21.4°
Enters shadow 23:45:14 - 22° (NNE) 2,686 6.1 -21.5°
